Weather History for Tetuan, Morocco

Change the Weather History Date:

Thursday, September 27, 2012

  Actual Average Record
Temperature  
Mean Temperature 68 °F -  
Max Temperature 71 °F 73 °F 86 °F (2006)
Min Temperature 64 °F 62 °F 59 °F (1999)
Cooling Degree Days 2    
Growing Degree Days 18 (Base 50)    
Moisture  
Dew Point 64 °F    
Average Humidity 88    
Maximum Humidity 94    
Minimum Humidity 78    
Precipitation  
Precipitation 0.04 in - - ()
Sea Level Pressure  
Sea Level Pressure 29.80 in    
Wind  
Wind Speed 3 mph ()    
Max Wind Speed 6 mph    
Max Gust Speed -    
Visibility 5.6 miles    
Events Rain    
Averages and records for this station are not official NWS values.
T = Trace of Precipitation, MM = Missing Value Source: Averaged Metar Reports

Daily Weather History Graph

Daily Weather History Graph

Search for Another Location

Airport:

Trip Planner

Search our weather history database for the weather conditions in past years. The results will help you decide how hot, cold, wet, or windy it might be!

Date:

Astronomy

Sep. 27, 2012 Rise Set
Actual Time 7:13 AM WEST 7:10 PM WEST
Civil Twilight 6:47 AM WEST 7:35 PM WEST
Nautical Twilight 6:18 AM WEST 8:05 PM WEST
Astronomical Twilight 5:48 AM WEST 8:35 PM WEST
Moon 5:31 PM WEST (9/27) 4:32 AM WEST (9/27)
Length of Visible Light 12h 47m
Length of Day
11h 57m
Waxing Gibbous, 93% of the Moon is Illuminated
Sep 27
Waxing Gibbous
Sep 30
Full
Oct 8
Last Quarter
Oct 15
New
Oct 22
First Quarter

Hourly Weather History & Observations

Time (WEST) Temp. Dew Point Humidity Pressure Visibility Wind Dir Wind Speed Gust Speed Precip Events Conditions
12:00 AM 66.2 °F 62.6 °F 88% 29.83 in 5.0 mi Variable 2.3 mph - N/A   Unknown
1:00 AM 65 °F 62 °F 85% 29.85 in 6 mi NE 1.2 mph - -  
1:00 AM 64.4 °F 60.8 °F 88% 29.83 in 5.6 mi NE 1.2 mph - N/A   Unknown
2:00 AM 64.4 °F 62.6 °F 94% 29.83 in 5.6 mi NNW 3.5 mph - N/A   Unknown
3:00 AM 64.4 °F 62.6 °F 94% 29.80 in 4.3 mi North 4.6 mph - N/A   Unknown
4:00 AM 65 °F 62 °F 88% 29.79 in 4 mi North 4.6 mph - -  
4:00 AM 66.2 °F 62.6 °F 88% 29.77 in 6.2 mi North 4.6 mph - N/A   Unknown
5:00 AM 66.2 °F 62.6 °F 88% 29.77 in 6.2 mi North 5.8 mph - N/A   Unknown
6:00 AM 66.2 °F 64.4 °F 94% 29.77 in 4.3 mi North 3.5 mph - N/A   Unknown
7:00 AM - - %  in - Calm Calm - -  
7:00 AM - - N/A% 0.00 in - North - - N/A   Unknown
8:00 AM - - N/A% 29.80 in - North - - N/A   Mostly Cloudy
9:00 AM - - N/A% 0.00 in 6.2 mi NE 4.6 mph - N/A   Mostly Cloudy
10:00 AM 67 °F 65 °F 91% 29.81 in 6 mi North 4.6 mph - - Rain Light Rain
10:00 AM 66.2 °F 64.4 °F 94% 29.80 in 6.2 mi North 4.6 mph - N/A Rain Light Rain
11:00 AM 68.0 °F 66.2 °F 94% 29.80 in 6.2 mi NNW 3.5 mph - N/A   Mostly Cloudy
1:00 PM 69 °F 65 °F 82% 29.82 in 6 mi East 5.8 mph - -   Overcast
1:00 PM 68.0 °F 64.4 °F 88% 29.80 in 6.2 mi East 5.8 mph - N/A   Mostly Cloudy
2:00 PM 69.8 °F 66.2 °F 88% 29.80 in 6.2 mi NNE 3.5 mph - N/A   Mostly Cloudy
3:00 PM 69.8 °F 64.4 °F 83% 29.80 in 6.2 mi East 4.6 mph - N/A   Mostly Cloudy
4:00 PM 71 °F 66 °F 78% 29.81 in 6 mi East 3.5 mph - -   Overcast
4:00 PM 71.6 °F 66.2 °F 83% 29.80 in 6.2 mi East 3.5 mph - N/A   Mostly Cloudy
5:00 PM 71.6 °F 66.2 °F 83% 29.77 in 6.2 mi East 3.5 mph - N/A   Mostly Cloudy
6:00 PM 69.8 °F 64.4 °F 83% 29.80 in 6.2 mi ENE 4.6 mph - N/A   Mostly Cloudy
7:00 PM 70 °F 66 °F 83% 29.81 in 5 mi ENE 4.6 mph - -   Overcast
7:00 PM 69.8 °F 66.2 °F 88% 29.80 in 5.0 mi ENE 4.6 mph - N/A   Mostly Cloudy
8:00 PM 68.0 °F 66.2 °F 94% 29.83 in 3.7 mi NNE 3.5 mph - N/A Rain Light Rain